Regional Weather Roundup
Issued by NWS

Home | Current Version | Previous Version | Graphics & Text | Print | Product List | Glossary On
Versions: 1 2 3 4 5 6 7 8 9 10 11 12 13 14 15 16 17 18 19 20 21 22 23 24 25 26 27 28 29 30 31 32 33 34 35 36 37 38 39 40 41 42 43 44 45 46 47 48 49 50
000
ASUS45 KCYS 310710
RWRWY

WYOMING REGIONAL WEATHER ROUNDUP
NATIONAL WEATHER SERVICE CHEYENNE WY
100 AM MDT FRI JUL 31 2015

NOTE:  "FAIR" INDICATES FEW OR NO CLOUDS BELOW 12,000 FEET
WITH NO SIGNIFICANT WEATHER AND/OR OBSTRUCTIONS TO VISIBILITY.

WYZ001-310800-
YELLOWSTONE NATIONAL PARK

CITY           SKY/WX    TMP DP  RH WIND       PRES   REMARKS
LK YELLOWSTONE   N/A     44  34  67 CALM      30.54S
W YELLOWSTONE  NOT AVBL

$$
WYZ002>013-054>058-071-098>099-310800-
NORTHERN WYOMING

CITY           SKY/WX    TMP DP  RH WIND       PRES   REMARKS
JACKSON        FAIR      52  37  58 N3        30.43S
CODY           FAIR      63  34  34 S7        30.32F
GREYBULL       FAIR      67  40  37 SE5       30.23R
WORLAND        FAIR      64  28  25 CALM      30.25R
SHERIDAN       FAIR      55  45  68 SW5       30.27R
BUFFALO        FAIR      64  38  38 W7        30.34S
GILLETTE       FAIR      54  41  61 S6        30.29S
HULETT         FAIR      63  41  45 CALM      30.30S
NEWCASTLE      FAIR      61  41  48 CALM      30.29S

$$
WYZ014>020-022>026-101>103-310800-
CENTRAL WYOMING

CITY           SKY/WX    TMP DP  RH WIND       PRES   REMARKS
BIG PINEY      FAIR      49  27  42 NW7       30.45S
PINEDALE       FAIR      45  32  61 CALM      30.46S
DUBOIS         FAIR      52  30  43 NW9       30.48R
LANDER         FAIR      61  32  33 E6        30.34R
RIVERTON       FAIR      66  23  19 E3        30.35R
CASPER         FAIR      57  39  51 NW3       30.33R
DOUGLAS        FAIR      60  42  51 E7        30.32S

$$
WYZ021-027>030-104>119-310800-
SOUTHERN WYOMING

CITY           SKY/WX    TMP DP  RH WIND       PRES   REMARKS
EVANSTON       FAIR      60  23  24 SE3       30.46S
KEMMERER       FAIR      57  28  33 NW10      30.46S
FORT BRIDGER   SUNNY     61  23  23 W9        30.47S
ROCK SPRINGS   FAIR      60  19  20 S7        30.40S
DIXON          FAIR      55  26  32 SE9       30.40F
RAWLINS        FAIR      61  34  36 NE8       30.42S
SARATOGA       FAIR      52  23  32 CALM      30.44R
LARAMIE        FAIR      58  46  64 VRB6      30.46R
CHEYENNE       FAIR      61  50  67 CALM      30.40F
TORRINGTON     FAIR      60  48  64 NE6       30.27S
PINE BLUFFS    FAIR      57  54  88 CALM      30.36S

$$


USA.gov is the U.S. government's official web portal to all federal, state and local government web resources and services.